Location: Shenandoah County Park
(38.9356°N, 78.4524°W)
Time: 08:56:17
(UTC-05:00)

Vanguard 2 - Visible Passes

Search period start: 06 November 2024 00:00
Search period end: 16 November 2024 00:00
Orbit: 551 x 2910 km, 32.9° (Epoch: 06 November)

Date Brightness Start Highest point End Pass type
(mag) Time Alt. Az. Time Alt. Az. Time Alt. Az.
06 Nov 11.9 18:17:50 10° W 18:28:47 20° SW 18:39:13 10° S visible
07 Nov 12.1 18:34:02 10° WSW 18:41:57 15° SW 18:49:39 10° SSW visible
11 Nov 12.4 17:17:33 10° WSW 17:25:30 15° SW 17:33:48 10° SSW visible
